TimeCDT,TemperatureF,Dew PointF,Humidity,Sea Level PressureIn,VisibilityMPH,Wind Direction,Wind SpeedMPH,Gust SpeedMPH,PrecipitationIn,Events,Conditions,WindDirDegrees,DateUTC
12:53 AM,45.0,41.0,86,30.08,10.0,NE,8.1,18.4,0.01,Rain,Light Rain,40,2013-04-03 05:53:00
1:53 AM,46.0,39.9,79,30.02,10.0,ENE,8.1,-,0.00,,Overcast,70,2013-04-03 06:53:00
2:53 AM,46.9,41.0,80,29.99,10.0,East,4.6,-,0.00,,Overcast,80,2013-04-03 07:53:00
3:53 AM,46.9,43.0,86,30.04,10.0,NE,4.6,-,0.02,Rain,Light Rain,50,2013-04-03 08:53:00
4:53 AM,46.0,44.1,93,30.02,10.0,NNE,9.2,-,0.05,Rain,Light Rain,30,2013-04-03 09:53:00
5:53 AM,46.0,44.1,93,30.02,10.0,NE,9.2,17.3,0.00,,Overcast,40,2013-04-03 10:53:00
6:53 AM,46.0,42.1,86,30.03,10.0,NE,11.5,-,N/A,,Overcast,40,2013-04-03 11:53:00
7:53 AM,45.0,42.1,90,30.06,10.0,ENE,8.1,-,N/A,,Overcast,60,2013-04-03 12:53:00
8:53 AM,45.0,42.1,90,30.08,10.0,NNE,9.2,-,N/A,,Overcast,20,2013-04-03 13:53:00
9:29 AM,44.6,42.8,93,30.10,4.0,NNE,6.9,-,0.03,Rain,Light Rain,20,2013-04-03 14:29:00
9:53 AM,45.0,42.1,90,30.11,7.0,North,8.1,-,0.04,Rain,Light Rain,10,2013-04-03 14:53:00
10:24 AM,44.6,42.8,93,30.12,5.0,NNE,9.2,-,0.02,Rain,Light Rain,30,2013-04-03 15:24:00
10:46 AM,44.6,42.8,93,30.11,8.0,NE,13.8,20.7,0.03,Rain,Light Rain,40,2013-04-03 15:46:00
10:53 AM,44.1,42.1,93,30.11,7.0,NE,9.2,20.7,0.03,Rain,Light Rain,40,2013-04-03 15:53:00
11:09 AM,44.6,42.8,93,30.09,5.0,NE,13.8,20.7,0.02,Rain,Light Rain,40,2013-04-03 16:09:00
11:53 AM,45.0,42.1,90,30.09,10.0,NE,9.2,19.6,0.03,,Overcast,50,2013-04-03 16:53:00
12:53 PM,46.0,43.0,89,30.11,10.0,ENE,8.1,-,N/A,,Overcast,60,2013-04-03 17:53:00
1:53 PM,46.0,42.1,86,30.08,10.0,NE,9.2,18.4,N/A,,Overcast,50,2013-04-03 18:53:00
2:53 PM,46.0,42.1,86,30.08,10.0,NE,10.4,19.6,N/A,,Overcast,40,2013-04-03 19:53:00
3:53 PM,45.0,41.0,86,30.08,10.0,NE,10.4,-,N/A,,Overcast,40,2013-04-03 20:53:00
4:53 PM,45.0,41.0,86,30.07,10.0,NE,10.4,-,N/A,,Overcast,40,2013-04-03 21:53:00
5:53 PM,44.1,41.0,89,30.07,10.0,North,9.2,-,N/A,,Overcast,10,2013-04-03 22:53:00
6:53 PM,44.1,39.9,85,30.07,10.0,NE,10.4,17.3,N/A,,Overcast,40,2013-04-03 23:53:00
7:53 PM,43.0,39.9,89,30.08,10.0,NE,10.4,-,N/A,,Overcast,50,2013-04-04 00:53:00
8:53 PM,43.0,39.9,89,30.12,10.0,NNE,10.4,-,N/A,,Overcast,30,2013-04-04 01:53:00
9:53 PM,43.0,39.9,89,30.14,6.0,NE,6.9,-,N/A,,Overcast,40,2013-04-04 02:53:00
10:53 PM,42.1,39.9,92,30.14,5.0,NNE,5.8,-,0.00,Rain,Light Rain,20,2013-04-04 03:53:00
11:19 PM,42.8,39.2,87,30.14,7.0,NE,6.9,-,0.00,Rain,Light Rain,40,2013-04-04 04:19:00
11:41 PM,42.8,39.2,87,30.13,10.0,NNE,5.8,-,0.00,Rain,Light Rain,20,2013-04-04 04:41:00
11:48 PM,42.8,39.2,87,30.13,10.0,NNE,5.8,-,0.00,Rain,Light Rain,30,2013-04-04 04:48:00
11:53 PM,42.1,39.9,92,30.13,10.0,NNE,4.6,-,0.00,,Overcast,20,2013-04-04 04:53:00